Weather History for Chicago DuPage, IL

Change the Weather History Date:

Monday, June 3, 2013

  Actual Average Record
Temperature  
Mean Temperature 54 °F 66 °F  
Max Temperature 69 °F 77 °F 89 °F (2011)
Min Temperature 38 °F 54 °F 38 °F (2013)
Degree Days  
Heating Degree Days 11 3  
Month to date heating degree days 22 9  
Since 1 June heating degree days 22 9  
Since 1 July heating degree days 6551 6288  
Cooling Degree Days 0 3  
Month to date cooling degree days 3 9  
Year to date cooling degree days 80 55  
Since 1 June cooling degree days 3 9  
Growing Degree Days 4 (Base 50)    
Moisture  
Dew Point 43 °F    
Average Humidity 80    
Maximum Humidity 100    
Minimum Humidity 39    
Precipitation  
Precipitation 0.00 in 0.18 in 0.43 in (2002)
Month to date precipitation 0.26 0.57  
Year to date precipitation 17.55 13.59  
Sea Level Pressure  
Sea Level Pressure 30.07 in    
Wind  
Wind Speed 3 mph (South)    
Max Wind Speed 14 mph    
Max Gust Speed 18 mph    
Visibility 6 miles    
Events Fog    
T = Trace of Precipitation, MM = Missing Value Source: NWS Daily Summary

Daily Weather History Graph

Daily Weather History Graph

Search for Another Location

Airport:

Trip Planner

Search our weather history database for the weather conditions in past years. The results will help you decide how hot, cold, wet, or windy it might be!

Date:

Astronomy

Jun. 03, 2013 Rise Set
Actual Time 5:19 AM CDT 8:23 PM CDT
Civil Twilight 4:45 AM CDT 8:57 PM CDT
Nautical Twilight 4:02 AM CDT 9:40 PM CDT
Astronomical Twilight 3:11 AM CDT 10:31 PM CDT
Moon 2:21 AM CDT (6/3) 3:50 PM CDT (6/3)
Length of Visible Light 16h 11m
Length of Day
15h 04m
Waning Crescent, 22% of the Moon is Illuminated
Jun 3
Waning Crescent
Jun 8
New
Jun 16
First Quarter
Jun 23
Full
Jun 29
Last Quarter

Hourly Weather History & Observations

Time (CDT) Temp. Windchill Dew Point Humidity Pressure Visibility Wind Dir Wind Speed Gust Speed Precip Events Conditions
12:07 AM 44.6 °F - 42.8 °F 93% 30.05 in 1.8 mi Calm Calm - N/A   Clear
12:19 AM 44.6 °F - 42.8 °F 93% 30.05 in 10.0 mi Calm Calm - N/A   Clear
12:26 AM 44.6 °F 43.1 °F 44.6 °F 100% 30.05 in 10.0 mi South 3.5 mph - N/A   Partly Cloudy
12:52 AM 45.0 °F - 43.0 °F 93% 30.07 in 10.0 mi Calm Calm - N/A   Clear
1:17 AM 44.6 °F - 42.8 °F 93% 30.06 in 10.0 mi Calm Calm - N/A   Partly Cloudy
1:52 AM 44.1 °F - 43.0 °F 96% 30.07 in 10.0 mi Calm Calm - N/A   Clear
2:01 AM 44.6 °F 43.1 °F 42.8 °F 93% 30.06 in 1.8 mi South 3.5 mph - N/A   Clear
2:11 AM 44.6 °F - 42.8 °F 93% 30.06 in 4.0 mi Calm Calm - N/A   Clear
2:35 AM 44.6 °F - 42.8 °F 93% 30.05 in 1.5 mi Calm Calm - N/A   Clear
2:52 AM 43.0 °F - 42.1 °F 97% 30.06 in 1.8 mi Calm Calm - N/A   Clear
2:58 AM 42.8 °F - 41.0 °F 93% 30.05 in 3.0 mi Calm Calm - N/A   Clear
3:12 AM 42.8 °F - 42.8 °F 100% 30.05 in 2.0 mi Calm Calm - N/A   Clear
3:29 AM 42.8 °F - 42.8 °F 100% 30.06 in 1.2 mi Calm Calm - N/A   Clear
3:33 AM 42.8 °F - 42.8 °F 100% 30.06 in 1.0 mi Calm Calm - N/A   Mist
3:40 AM 42.8 °F - 42.8 °F 100% 30.06 in 0.5 mi Calm Calm - N/A Fog Fog
3:52 AM 42.1 °F - 41.0 °F 96% 30.07 in 0.5 mi Calm Calm - N/A Fog Fog
3:56 AM 42.8 °F - 39.2 °F 87% 30.06 in 1.2 mi Calm Calm - N/A   Partly Cloudy
3:59 AM 42.8 °F - 39.2 °F 87% 30.05 in 4.0 mi Calm Calm - N/A   Partly Cloudy
4:07 AM 42.8 °F - 39.2 °F 87% 30.05 in 1.5 mi Calm Calm - N/A   Partly Cloudy
4:17 AM 42.8 °F - 41.0 °F 93% 30.06 in 4.0 mi Calm Calm - N/A   Partly Cloudy
4:24 AM 42.8 °F - 41.0 °F 93% 30.06 in 1.5 mi Calm Calm - N/A   Partly Cloudy
4:30 AM 41.0 °F - 41.0 °F 100% 30.06 in 0.8 mi Calm Calm - N/A   Mist
4:35 AM 42.8 °F - 41.0 °F 93% 30.06 in 2.5 mi Calm Calm - N/A   Mostly Cloudy
4:42 AM 42.8 °F - 41.0 °F 93% 30.06 in 7.0 mi Calm Calm - N/A   Scattered Clouds
4:52 AM 41.0 °F - 39.9 °F 96% 30.07 in 9.0 mi Calm Calm - N/A   Mostly Cloudy
5:12 AM 39.2 °F - 39.2 °F 100% 30.07 in 9.0 mi Calm Calm - N/A   Scattered Clouds
5:52 AM 41.0 °F - 39.9 °F 96% 30.09 in 4.0 mi Calm Calm - N/A   Mostly Cloudy
6:23 AM 44.6 °F - 44.6 °F 100% 30.08 in 6.0 mi Calm Calm - N/A   Scattered Clouds
6:52 AM 46.9 °F - 45.0 °F 93% 30.09 in 7.0 mi Calm Calm - N/A   Clear
7:52 AM 51.1 °F - 48.0 °F 89% 30.11 in 7.0 mi Calm Calm - N/A   Clear
8:52 AM 54.0 °F - 48.0 °F 80% 30.12 in 10.0 mi South 3.5 mph - N/A   Clear
9:52 AM 57.0 °F - 48.0 °F 72% 30.13 in 10.0 mi Variable 4.6 mph - N/A   Scattered Clouds
10:13 AM 57.2 °F - 46.4 °F 67% 30.12 in 10.0 mi South 3.5 mph - N/A   Mostly Cloudy
10:25 AM 60.8 °F - 48.2 °F 63% 30.12 in 10.0 mi Variable 3.5 mph - N/A   Scattered Clouds
10:52 AM 59.0 °F - 46.9 °F 64% 30.12 in 10.0 mi SW 5.8 mph - N/A   Mostly Cloudy
11:52 AM 62.1 °F - 46.0 °F 56% 30.10 in 10.0 mi South 3.5 mph - N/A   Mostly Cloudy
12:52 PM 64.0 °F - 46.9 °F 54% 30.09 in 10.0 mi SW 4.6 mph - N/A   Partly Cloudy
1:52 PM 64.9 °F - 46.0 °F 50% 30.06 in 10.0 mi Calm Calm - N/A   Scattered Clouds
2:52 PM 64.9 °F - 44.1 °F 47% 30.06 in 10.0 mi Calm Calm - N/A   Clear
3:52 PM 66.9 °F - 45.0 °F 45% 30.04 in 10.0 mi Calm Calm - N/A   Clear
4:52 PM 66.9 °F - 44.1 °F 44% 30.03 in 9.0 mi Variable 4.6 mph - N/A   Clear
5:52 PM 68.0 °F - 46.0 °F 45% 30.03 in 10.0 mi SSW 4.6 mph - N/A   Clear
6:52 PM 64.9 °F - 39.0 °F 39% 30.04 in 10.0 mi ESE 9.2 mph - N/A   Clear
7:52 PM 62.1 °F - 39.0 °F 43% 30.06 in 10.0 mi ESE 6.9 mph - N/A   Clear
8:52 PM 57.9 °F - 39.9 °F 51% 30.08 in 10.0 mi SE 5.8 mph - N/A   Clear
9:52 PM 57.0 °F - 41.0 °F 55% 30.09 in 10.0 mi SE 4.6 mph - N/A   Clear
10:52 PM 53.1 °F - 39.9 °F 61% 30.09 in 10.0 mi SE 4.6 mph - N/A   Clear
11:52 PM 53.1 °F - 41.0 °F 64% 30.10 in 10.0 mi Calm Calm - N/A   Clear